DW8209 Gubbio IT current weather conditions

sailwx.info

Wind from 068 at 1 knots gusting 12

Air temperature 7.2° C
Dewpoint 4.0° C

Last reported at 2017-Jan-23 11:47 UTC.
Time now 2017-Jan-23 12:52 UTC

Location: N 43°19' E 012°34'.
View on Google Maps.

See reports from other nearby stations

  
Tides and Currents Weather Stations Pressure Air Temp Water Temp Dewpoint Dewpoint Depression Visibility Wind Speed Wind Dir Waves Ship Positions
date/time (UTC)wind fromknots sea level pressurealtimeterstation pressurevisibilityair tempwater tempwave heightnotes
2017-Jan-23 11:47 068 1 gusting 12 7.2
2017-Jan-23 11:32 068 1 gusting 10 7.2
2017-Jan-23 11:17 065 0 gusting 11 7.2
2017-Jan-23 11:02 069 1 gusting 11 7.2
2017-Jan-23 10:47 054 0 gusting 10 7.2
2017-Jan-23 10:32 064 7.2
2017-Jan-23 10:17 032 0 gusting 7 7.2
2017-Jan-23 10:02 045 0 gusting 8 7.8
2017-Jan-23 09:47 067 7.8
2017-Jan-23 09:32 146 7.2
2017-Jan-23 09:16 013 1 gusting 8 7.2
2017-Jan-23 09:01 084 6.7
2017-Jan-23 08:46 061 0 gusting 6 6.7
2017-Jan-23 08:31 068 6.1
2017-Jan-23 08:16 080 0 gusting 8 6.1
2017-Jan-23 08:01 074 6.1
2017-Jan-23 07:46 058 6.1
2017-Jan-23 07:31 092 1 gusting 10 6.1
2017-Jan-23 07:16 096 0 gusting 6 6.1
2017-Jan-23 07:01 092 1 gusting 8 5.6
2017-Jan-23 06:46 091 5.6
2017-Jan-23 06:31 113 0 gusting 6 5.6
2017-Jan-23 06:16 129 5.0
2017-Jan-23 06:01 126 5.6
2017-Jan-23 05:46 096 5.6
2017-Jan-23 05:31 118 5.6
2017-Jan-23 05:16 060 5.6
2017-Jan-23 05:01 135 5.6
2017-Jan-23 04:46 100 0 gusting 7 5.6
2017-Jan-23 04:31 133 5.6
2017-Jan-23 04:16 120 0 gusting 8 5.6
2017-Jan-23 04:01 107 1 gusting 9 5.6
2017-Jan-23 03:46 113 5.6
2017-Jan-23 03:32 106 5.6
2017-Jan-23 03:16 147 5.6
2017-Jan-23 03:01 116 5.6
2017-Jan-23 02:45 110 0 gusting 7 5.6
2017-Jan-23 02:31 103 5.0
2017-Jan-23 02:15 142 5.6
2017-Jan-23 02:00 098 5.6
2017-Jan-23 01:45 135 5.6
2017-Jan-23 01:30 107 5.6
2017-Jan-23 01:15 106 5.6
2017-Jan-23 01:00 138 0 gusting 6 5.6
2017-Jan-23 00:45 155 5.6
2017-Jan-23 00:30 080 6.1
2017-Jan-23 00:15 146 0 gusting 9 6.1
2017-Jan-23 00:00 056 5.6
2017-Jan-22 23:45 093 1 gusting 11 6.1
2017-Jan-22 23:30 079 0 gusting 11 6.1
2017-Jan-22 23:15 082 0 gusting 9 5.6
2017-Jan-22 23:00 096 0 gusting 10 5.6
2017-Jan-22 22:45 103 1 gusting 12 5.6
2017-Jan-22 22:30 061 5.6
2017-Jan-22 22:15 095 0 gusting 6 5.6
2017-Jan-22 22:00 079 0 gusting 7 6.1
2017-Jan-22 21:45 091 6.1
2017-Jan-22 21:30 089 0 gusting 9 5.6
2017-Jan-22 21:15 109 5.6
2017-Jan-22 21:00 052 0 gusting 6 5.6
2017-Jan-22 20:45 149 5.6
2017-Jan-22 20:30 119 5.6
2017-Jan-22 20:15 127 0 gusting 6 5.6
2017-Jan-22 20:00 117 5.6
2017-Jan-22 19:45 115 0 gusting 6 5.6
2017-Jan-22 19:30 084 5.6
2017-Jan-22 19:15 090 6.1
2017-Jan-22 19:00 105 0 gusting 6 5.6
2017-Jan-22 18:45 108 5.6
2017-Jan-22 18:30 084 0 gusting 12 5.6
2017-Jan-22 18:15 075 0 gusting 10 5.6
2017-Jan-22 18:00 138 5.6
2017-Jan-22 17:45 056 1 gusting 8 5.6
2017-Jan-22 17:30 088 0 gusting 11 5.6
2017-Jan-22 17:15 105 0 gusting 11 5.6
2017-Jan-22 17:00 091 1 gusting 13 5.6
2017-Jan-22 16:45 121 0 gusting 12 5.6
2017-Jan-22 16:30 082 0 gusting 13 5.6
2017-Jan-22 16:15 103 0 gusting 13 5.6
2017-Jan-22 16:00 085 1 gusting 12 5.6
2017-Jan-22 15:45 078 2 gusting 16 6.1
2017-Jan-22 15:30 082 1 gusting 14 6.1
2017-Jan-22 15:15 086 1 gusting 13 6.1
2017-Jan-22 15:00 091 1 gusting 14 6.1
2017-Jan-22 14:45 091 1 gusting 13 6.1
2017-Jan-22 14:30 061 2 gusting 13 6.7
2017-Jan-22 14:15 070 2 gusting 15 6.7
2017-Jan-22 14:00 062 1 gusting 13 6.7
2017-Jan-22 13:45 062 0 gusting 14 6.7
2017-Jan-22 13:29 087 1 gusting 15 6.7
2017-Jan-22 13:15 105 1 gusting 12 6.7
2017-Jan-22 13:00 125 1 gusting 10 6.1
2017-Jan-22 12:44 111 0 gusting 14 6.1
2017-Jan-22 12:29 069 2 gusting 14 6.1
2017-Jan-22 12:14 075 2 gusting 16 6.1
2017-Jan-22 11:59 077 1 gusting 12 6.1
2017-Jan-22 11:44 061 2 gusting 13 6.1
2017-Jan-22 11:29 084 1 gusting 13 6.7
2017-Jan-22 11:14 072 1 gusting 20 6.7
2017-Jan-22 10:59 068 2 gusting 16 6.7
2017-Jan-22 10:44 067 2 gusting 16 6.7
2017-Jan-22 10:29 094 1 gusting 15 6.7
2017-Jan-22 10:14 071 1 gusting 13 6.7
2017-Jan-22 09:59 047 2 gusting 13 6.7
2017-Jan-22 09:44 089 1 gusting 13 6.7
2017-Jan-22 09:29 075 1 gusting 16 6.1
2017-Jan-22 09:14 098 1 gusting 15 6.1
2017-Jan-22 08:59 062 0 gusting 13 5.6
2017-Jan-22 08:44 089 0 gusting 9 5.6
2017-Jan-22 08:29 078 5.6
2017-Jan-22 08:14 108 0 gusting 7 5.0
2017-Jan-22 07:58 107 5.0
2017-Jan-22 07:43 152 4.4
2017-Jan-22 07:28 100 0 gusting 5 4.4
2017-Jan-22 07:13 132 0 gusting 4 4.4
2017-Jan-22 06:58 121 0 gusting 9 4.4
2017-Jan-22 06:43 110 0 gusting 7 4.4
2017-Jan-22 06:28 083 0 gusting 6 4.4
2017-Jan-22 06:13 122 1 gusting 5 3.9
2017-Jan-22 05:58 122 0 gusting 10 4.4
2017-Jan-22 05:43 094 0 gusting 5 4.4
2017-Jan-22 05:28 103 0 gusting 8 4.4
2017-Jan-22 05:13 082 0 gusting 9 4.4
2017-Jan-22 04:58 087 1 gusting 15 4.4
2017-Jan-22 04:43 076 0 gusting 5 4.4
2017-Jan-22 04:28 062 0 gusting 10 4.4
2017-Jan-22 04:13 078 0 gusting 10 4.4
2017-Jan-22 03:58 092 1 gusting 13 4.4
2017-Jan-22 03:43 089 1 gusting 16 4.4
2017-Jan-22 03:28 100 1 gusting 10 4.4
2017-Jan-22 03:13 087 1 gusting 13 4.4
2017-Jan-22 02:58 077 0 gusting 8 4.4
2017-Jan-22 02:43 064 0 gusting 8 4.4
2017-Jan-22 02:28 077 0 gusting 9 4.4
2017-Jan-22 02:13 061 0 gusting 10 4.4
2017-Jan-22 01:58 092 0 gusting 8 4.4
2017-Jan-22 01:43 096 0 gusting 8 4.4
2017-Jan-22 01:28 078 0 gusting 9 4.4
2017-Jan-22 01:13 056 0 gusting 8 4.4
2017-Jan-22 00:58 072 1 gusting 6 3.9
2017-Jan-22 00:43 106 1 gusting 7 3.9
2017-Jan-22 00:28 089 0 gusting 6 3.9
2017-Jan-22 00:12 117 1 gusting 7 3.9
2017-Jan-21 23:57 056 0 gusting 9 3.9
2017-Jan-21 23:43 058 1 gusting 9 3.9
2017-Jan-21 23:27 075 0 gusting 7 3.9
2017-Jan-21 23:12 104 3.9
2017-Jan-21 22:57 079 1 gusting 3 3.9
2017-Jan-21 22:42 149 0 gusting 4 3.9
2017-Jan-21 22:27 101 3 gusting 9 4.4
2017-Jan-21 22:12 109 2 gusting 7 3.9
2017-Jan-21 21:57 086 3 gusting 8 3.9
2017-Jan-21 21:42 082 3 gusting 9 3.9
2017-Jan-21 21:27 088 3 gusting 10 3.9
2017-Jan-21 21:12 059 0 gusting 6 3.9
2017-Jan-21 20:57 093 1 gusting 16 3.9
2017-Jan-21 20:42 105 2 gusting 13 3.9
2017-Jan-21 20:27 115 2 gusting 6 3.9
2017-Jan-21 20:12 067 2 gusting 9 3.9
2017-Jan-21 19:57 080 2 gusting 6 3.3
2017-Jan-21 19:42 087 5 gusting 7 3.9
2017-Jan-21 19:27 098 5 gusting 8 3.3
2017-Jan-21 19:12 084 3 gusting 7 3.3
2017-Jan-21 18:58 125 1 gusting 6 3.3
2017-Jan-21 18:42 129 3 gusting 9 3.3
2017-Jan-21 18:27 075 4 gusting 9 3.3
2017-Jan-21 18:12 105 3 gusting 8 3.3
2017-Jan-21 17:57 117 0 gusting 6 3.3
2017-Jan-21 17:42 096 3.3
2017-Jan-21 17:27 074 2 gusting 9 3.3
2017-Jan-21 17:12 079 5 gusting 9 3.3
2017-Jan-21 16:57 094 3 gusting 6 3.3
2017-Jan-21 16:42 074 3 gusting 8 3.3
2017-Jan-21 16:27 097 5 gusting 8 3.3
2017-Jan-21 16:12 053 3 gusting 9 3.3
2017-Jan-21 15:57 084 8 gusting 11 3.9
2017-Jan-21 15:42 070 6 gusting 13 3.9
2017-Jan-21 15:27 082 6 gusting 11 3.9
2017-Jan-21 15:12 114 6 gusting 14 3.9
2017-Jan-21 14:57 063 7 gusting 9 3.9
2017-Jan-21 14:42 087 4 gusting 19 3.9
2017-Jan-21 14:27 075 6 gusting 15 3.9
2017-Jan-21 14:12 068 6 gusting 12 3.9
2017-Jan-21 13:57 088 4 gusting 12 3.9
2017-Jan-21 13:42 086 6 gusting 12 3.9
2017-Jan-21 13:27 084 5 gusting 10 3.9
2017-Jan-21 13:12 084 4 gusting 14 4.4
2017-Jan-21 12:58 082 3 gusting 14 4.4
2017-Jan-21 12:42 069 3 gusting 13 4.4
2017-Jan-21 12:27 062 4 gusting 17 5.0
2017-Jan-21 12:12 069 2 gusting 14 5.0